Weather History for KFKN - May, 2009

Change the Weather History Date:

Monday, May 25, 2009

  Actual Average (KSFQ) Record (KSFQ)
Temperature  
Mean Temperature 77 °F -  
Max Temperature 86 °F 77 °F 95 °F (2004)
Min Temperature 68 °F 59 °F 38 °F (1956)
Cooling Degree Days 12    
Growing Degree Days 27 (Base 50)    
Moisture  
Dew Point 69 °F    
Average Humidity 77    
Maximum Humidity 100    
Minimum Humidity 51    
Precipitation  
Precipitation 0.00 in - - ()
Sea Level Pressure  
Sea Level Pressure 30.02 in    
Wind  
Wind Speed 5 mph (South)    
Max Wind Speed 10 mph    
Max Gust Speed -    
Visibility 10 miles    
Events      
Averages and records for this station are not official NWS values.
T = Trace of Precipitation, MM = Missing Value Source: NWS Daily Summary

Daily Weather History Graph

Daily Weather History Graph

Search for Another Location

Airport or City:

Trip Planner

Search our weather history database for the weather conditions in past years. The results will help you decide how hot, cold, wet, or windy it might be!

Date:

Astronomy

May. 25, 2009 Rise Set
Actual Time 5:53 AM EDT 8:16 PM EDT
Civil Twilight 5:23 AM EDT 8:45 PM EDT
Nautical Twilight 4:47 AM EDT 9:22 PM EDT
Astronomical Twilight 4:07 AM EDT 10:02 PM EDT
Moon 6:32 AM EDT (5/25) 10:04 PM EDT (5/25)
Length of Visible Light 15h 22m
Length of Day
14h 22m
New Moon, 2% of the Moon is Illuminated
May 25
New Moon
May 30
First Quarter
Jun 7
Full
Jun 15
Last Quarter
Jun 22
New

Hourly Weather History & Observations

Time (EDT) Temp. Heat Index Dew Point Humidity Pressure Visibility Wind Dir Wind Speed Gust Speed Precip Events Conditions
12:00 AM 71.6 °F - 69.8 °F 94% 30.06 in 10.0 mi SSW 5.8 mph - N/A   Clear
12:20 AM 71.6 °F - 69.8 °F 94% 30.06 in 10.0 mi South 6.9 mph - N/A   Clear
12:40 AM 71.6 °F - 69.8 °F 94% 30.06 in 10.0 mi South 5.8 mph - N/A   Clear
1:00 AM 71.6 °F - 69.8 °F 94% 30.05 in 10.0 mi South 6.9 mph - N/A   Clear
1:20 AM 71.6 °F - 69.8 °F 94% 30.05 in 10.0 mi SSW 4.6 mph - N/A   Clear
1:40 AM 71.6 °F - 69.8 °F 94% 30.05 in 10.0 mi SSW 3.5 mph - N/A   Clear
2:00 AM 71.6 °F - 69.8 °F 94% 30.04 in 10.0 mi South 3.5 mph - N/A   Clear
2:20 AM 71.6 °F - 69.8 °F 94% 30.04 in 10.0 mi South 5.8 mph - N/A   Clear
2:40 AM 71.6 °F - 69.8 °F 94% 30.04 in 10.0 mi South 4.6 mph - N/A   Clear
3:00 AM 71.6 °F - 69.8 °F 94% 30.03 in 10.0 mi South 5.8 mph - N/A   Clear
3:20 AM 71.6 °F - 69.8 °F 94% 30.03 in 10.0 mi South 4.6 mph - N/A   Scattered Clouds
3:40 AM 71.6 °F - 69.8 °F 94% 30.03 in 10.0 mi Calm Calm - N/A   Mostly Cloudy
4:00 AM 71.6 °F - 69.8 °F 94% 30.03 in 10.0 mi SSW 6.9 mph - N/A   Scattered Clouds
4:20 AM 71.6 °F - 69.8 °F 94% 30.03 in 10.0 mi SSW 5.8 mph - N/A   Scattered Clouds
4:40 AM 69.8 °F - 69.8 °F 100% 30.02 in 10.0 mi Calm Calm - N/A   Clear
5:00 AM 69.8 °F - 68.0 °F 94% 30.02 in 10.0 mi South 4.6 mph - N/A   Clear
5:20 AM 69.8 °F - 68.0 °F 94% 30.02 in 10.0 mi South 3.5 mph - N/A   Clear
5:40 AM 69.8 °F - 68.0 °F 94% 30.02 in 10.0 mi SSE 3.5 mph - N/A   Clear
6:00 AM 68.0 °F - 68.0 °F 100% 30.03 in 10.0 mi South 3.5 mph - N/A   Scattered Clouds
6:20 AM 69.8 °F - 68.0 °F 94% 30.03 in 7.0 mi South 4.6 mph - N/A   Scattered Clouds
6:40 AM 69.8 °F - 69.8 °F 100% 30.04 in 10.0 mi South 3.5 mph - N/A   Overcast
7:00 AM 69.8 °F - 69.8 °F 100% 30.04 in 10.0 mi South 3.5 mph - N/A   Overcast
7:20 AM 71.6 °F - 69.8 °F 94% 30.04 in 10.0 mi South 4.6 mph - N/A   Overcast
7:40 AM 71.6 °F - 69.8 °F 94% 30.04 in 7.0 mi SSW 4.6 mph - N/A   Overcast
8:00 AM 71.6 °F - 69.8 °F 94% 30.05 in 7.0 mi SSW 3.5 mph - N/A   Overcast
8:20 AM 71.6 °F - 69.8 °F 94% 30.05 in 7.0 mi SW 5.8 mph - N/A   Overcast
8:40 AM 73.4 °F - 69.8 °F 88% 30.05 in 10.0 mi SW 5.8 mph - N/A   Overcast
9:00 AM 75.2 °F - 69.8 °F 83% 30.06 in 10.0 mi SW 4.6 mph - N/A   Mostly Cloudy
9:20 AM 77.0 °F - 71.6 °F 83% 30.06 in 10.0 mi SW 3.5 mph - N/A   Mostly Cloudy
10:00 AM 78.8 °F - 71.6 °F 78% 30.05 in 10.0 mi SSW 6.9 mph - N/A   Scattered Clouds
10:20 AM 78.8 °F - 69.8 °F 74% 30.05 in 10.0 mi WSW 6.9 mph - N/A   Scattered Clouds
11:20 AM 82.4 °F 85.4 °F 68.0 °F 62% 30.04 in 10.0 mi SW 8.1 mph - N/A   Scattered Clouds
11:40 AM 82.4 °F 86.3 °F 69.8 °F 66% 30.04 in 10.0 mi West 6.9 mph - N/A   Scattered Clouds
12:00 PM 84.2 °F 86.6 °F 66.2 °F 55% 30.03 in 3.0 mi SW 4.6 mph - N/A   Scattered Clouds
12:20 PM 84.2 °F 86.6 °F 66.2 °F 55% 30.03 in 10.0 mi WSW 3.5 mph - N/A   Scattered Clouds
12:40 PM 82.4 °F 85.4 °F 68.0 °F 62% 30.03 in 10.0 mi Calm Calm - N/A   Mostly Cloudy
1:00 PM 82.4 °F 84.6 °F 66.2 °F 58% 30.03 in 10.0 mi Calm Calm - N/A   Mostly Cloudy
1:20 PM 84.2 °F 87.3 °F 68.0 °F 58% 30.02 in 7.0 mi SSW 5.8 mph - N/A   Mostly Cloudy
1:40 PM 84.2 °F 88.4 °F 69.8 °F 62% 30.01 in 10.0 mi Calm Calm - N/A   Scattered Clouds
2:00 PM 84.2 °F 86.6 °F 66.2 °F 55% 30.01 in 10.0 mi South 6.9 mph - N/A   Mostly Cloudy
2:20 PM 84.2 °F 86.6 °F 66.2 °F 55% 30.00 in 10.0 mi Calm Calm - N/A   Scattered Clouds
2:40 PM 84.2 °F 87.3 °F 68.0 °F 58% 29.99 in 10.0 mi SSW 4.6 mph - N/A   Scattered Clouds
3:00 PM 84.2 °F 86.6 °F 66.2 °F 55% 29.99 in 10.0 mi SSE 9.2 mph - N/A   Scattered Clouds
3:20 PM 84.2 °F 87.3 °F 68.0 °F 58% 29.98 in 10.0 mi South 5.8 mph - N/A   Scattered Clouds
3:40 PM 86.0 °F 89.4 °F 68.0 °F 55% 29.97 in 10.0 mi SSE 8.1 mph - N/A   Clear
4:00 PM 84.2 °F 87.3 °F 68.0 °F 58% 29.97 in 10.0 mi South 9.2 mph - N/A   Clear
4:20 PM 84.2 °F 87.3 °F 68.0 °F 58% 29.97 in 10.0 mi South 6.9 mph - N/A   Clear
4:40 PM 84.2 °F 86.6 °F 66.2 °F 55% 29.96 in 10.0 mi South 6.9 mph - N/A   Clear
5:00 PM 84.2 °F 86.6 °F 66.2 °F 55% 29.96 in 10.0 mi South 8.1 mph - N/A   Clear
5:20 PM 86.0 °F 88.2 °F 66.2 °F 51% 29.96 in 10.0 mi SSE 8.1 mph - N/A   Clear
5:40 PM 82.4 °F 85.4 °F 68.0 °F 62% 29.96 in 10.0 mi South 10.4 mph - N/A   Clear
6:00 PM 84.2 °F 86.6 °F 66.2 °F 55% 29.96 in 10.0 mi South 10.4 mph - N/A   Scattered Clouds
6:20 PM 82.4 °F 85.4 °F 68.0 °F 62% 29.95 in 10.0 mi SSE 8.1 mph - N/A   Scattered Clouds
6:40 PM 80.6 °F 83.2 °F 68.0 °F 65% 29.96 in 10.0 mi SSE 8.1 mph - N/A   Scattered Clouds
7:00 PM 80.6 °F 83.2 °F 68.0 °F 65% 29.96 in 10.0 mi South 8.1 mph - N/A   Scattered Clouds
7:20 PM 80.6 °F 83.9 °F 69.8 °F 70% 29.96 in 10.0 mi South 6.9 mph - N/A   Clear
7:40 PM 80.6 °F 83.9 °F 69.8 °F 70% 29.96 in 10.0 mi SSE 5.8 mph - N/A   Clear
8:00 PM 80.6 °F 83.9 °F 69.8 °F 70% 29.96 in 10.0 mi SE 3.5 mph - N/A   Unknown
8:20 PM 78.8 °F - 69.8 °F 74% 29.97 in 10.0 mi ESE 3.5 mph - N/A   Unknown
8:40 PM 77.0 °F - 69.8 °F 78% 29.97 in 10.0 mi Calm Calm - N/A   Unknown
9:00 PM 77.0 °F - 69.8 °F 78% 29.98 in 10.0 mi SE 3.5 mph - N/A   Unknown
9:20 PM 75.2 °F - 69.8 °F 83% 29.99 in 10.0 mi Calm Calm - N/A   Unknown
9:40 PM 75.2 °F - 69.8 °F 83% 29.99 in 10.0 mi ESE 3.5 mph - N/A   Unknown
10:00 PM 75.2 °F - 69.8 °F 83% 30.00 in 10.0 mi Calm Calm - N/A   Unknown
10:20 PM 75.2 °F - 69.8 °F 83% 30.01 in 10.0 mi SE 3.5 mph - N/A   Unknown
10:40 PM 73.4 °F - 69.8 °F 88% 30.01 in 10.0 mi SSE 3.5 mph - N/A   Unknown
11:00 PM 73.4 °F - 69.8 °F 88% 30.01 in 10.0 mi SSE 3.5 mph - N/A   Mostly Cloudy
11:20 PM 75.2 °F - 69.8 °F 83% 30.01 in 10.0 mi SE 4.6 mph - N/A   Overcast
11:40 PM 75.2 °F - 69.8 °F 83% 30.01 in 10.0 mi SSE 3.5 mph - N/A   Overcast